EAGLET 1 (43790 NORAD) Tracking and Keplerian Element Data

This shows tracking and keplerian element data for the satellite.

Feedback or suggestion? Click here.




ElementValue
Catalog43790
NameEAGLET 1
Epoch Orbit3353
Epoch Day199.17587676
Epoch Year2019
RAAN270.9476
Inclination97.7448
Eccentricity0.0012266
Argument of Perigee231.2246
Mean Anonmoly128.788
Mean Motion14.95522864
Decay Rate-3.07E-06
L11 43790U 18099AJ 19199.17587676 -.00000307 00000-0 -22437-4 0 9990
L22 43790 97.7448 270.9476 0012266 231.2246 128.7880 14.95522864 33530

Live tracking and technical data element details for EAGLET 1 (NORAD 43790). EAGLET 1 can be tracked NOW for your location showing map with azimuth and elevation plus other details from your city location.

Track the satellite on the map from your city or location and see movement details for azimuth, elevation, latitude, longitude, range, height, and movement on the map or in text.







IsCatalogInMostPopularTable: catalog: 43790, numindb: 114
Update: records affected: 1



GetName: 43790 EAGLET 1

Hit Count: updated at: Sun, 21 Jul 2019 16:04:15 GMT